TimeMDT,TemperatureF,Dew PointF,Humidity,Sea Level PressureIn,VisibilityMPH,Wind Direction,Wind SpeedMPH,Gust SpeedMPH,PrecipitationIn,Events,Conditions,WindDirDegrees,DateUTC
12:53 AM,43.0,36.0,76,30.04,10.0,ESE,3.5,-,N/A,,Clear,110,2012-10-16 06:53:00
1:53 AM,41.0,36.0,82,30.04,10.0,East,3.5,-,N/A,,Clear,80,2012-10-16 07:53:00
2:53 AM,41.0,35.1,79,30.03,10.0,Calm,Calm,-,N/A,,Clear,0,2012-10-16 08:53:00
3:53 AM,39.9,34.0,79,30.01,10.0,Calm,Calm,-,N/A,,Clear,0,2012-10-16 09:53:00
4:53 AM,37.9,34.0,86,30.02,10.0,SE,4.6,-,N/A,,Clear,140,2012-10-16 10:53:00
6:53 AM,36.0,32.0,86,30.04,10.0,SE,3.5,-,N/A,,Clear,140,2012-10-16 12:53:00
7:53 AM,35.1,33.1,92,30.04,10.0,Calm,Calm,-,N/A,,Clear,0,2012-10-16 13:53:00
8:53 AM,41.0,33.1,73,30.04,10.0,Calm,Calm,-,N/A,,Clear,0,2012-10-16 14:53:00
9:53 AM,44.1,35.1,71,30.02,10.0,Calm,Calm,-,N/A,,Clear,0,2012-10-16 15:53:00
10:53 AM,51.1,35.1,54,29.97,10.0,Calm,Calm,-,N/A,,Clear,0,2012-10-16 16:53:00
11:53 AM,55.9,35.1,45,29.93,10.0,Calm,Calm,-,N/A,,Clear,0,2012-10-16 17:53:00
12:53 PM,61.0,36.0,39,29.86,10.0,WNW,8.1,-,N/A,,Clear,290,2012-10-16 18:53:00
1:53 PM,66.9,35.1,31,29.77,10.0,West,16.1,23.0,N/A,,Clear,280,2012-10-16 19:53:00
2:53 PM,69.1,33.1,26,29.71,10.0,West,23.0,32.2,N/A,,Clear,280,2012-10-16 20:53:00
3:53 PM,69.1,32.0,25,29.68,10.0,West,25.3,32.2,N/A,,Clear,270,2012-10-16 21:53:00
4:53 PM,69.1,32.0,25,29.68,10.0,West,21.9,28.8,N/A,,Clear,270,2012-10-16 22:53:00
5:53 PM,68.0,32.0,26,29.67,10.0,West,25.3,35.7,N/A,,Overcast,260,2012-10-16 23:53:00
6:53 PM,64.9,33.1,31,29.67,10.0,WSW,10.4,-,N/A,,Mostly Cloudy,250,2012-10-17 00:53:00
7:53 PM,62.1,33.1,34,29.68,10.0,SW,8.1,-,N/A,,Clear,230,2012-10-17 01:53:00
8:53 PM,62.1,33.1,34,29.66,10.0,WSW,10.4,-,N/A,,Overcast,240,2012-10-17 02:53:00
9:30 PM,60.8,39.2,45,29.82,10.0,NNW,16.1,26.5,N/A,Thunderstorm,Overcast,330,2012-10-17 03:30:00
9:53 PM,55.0,42.1,62,29.79,10.0,West,18.4,31.1,0.00,Rain,Light Rain,280,2012-10-17 03:53:00
10:53 PM,52.0,41.0,66,29.78,10.0,NNW,6.9,16.1,0.00,,Overcast,330,2012-10-17 04:53:00
11:53 PM,51.1,42.1,71,29.77,10.0,SSE,8.1,-,N/A,,Overcast,160,2012-10-17 05:53:00